Powrót do katalogu

SUXING-1 01

AktywnyNaukaSSO
NORAD 60749·PAYLOAD·🇨🇳 China
Ta nazwa satelity nie została jeszcze potwierdzona przez oficjalne źródła.

Wystrzelony Aug 29, 2024 z Yellow Sea Launch Area

Loading…

Następne Przeloty (najbliższe 24 godziny)

TLE

ŚwieżeSource: Space-Track

Epoka: Sep 14, 2026, 14:14 UTC

1 60749U 24153E   26257.59313977  .00010961  00000-0  39282-3 0  9991
2 60749  97.6831  37.5737 0000371 263.2516  96.8681 15.28918032113484

Śledź SUXING-1 01 w czasie rzeczywistym z AllMySat

Download on the App Store